Wind_Speed
6 7 6 4 5 5 6 9 13 20 14 7 8 10 12 13 15 14 15 13 13 14 16 17 18 19 20 22 22 24 27 26 23 23 24 25 26 29 28 30 27 24 22
10 9 7 4 5 7 8 10 13 16 18 9 9 12 14 15 17 16 15 16 16 18 19 19 19 20 20 22 23 24 26 27 27 25 23 27 29 30 31 32 31 26 25
13 13 9 6 7 7 9 11 13 13 18 15 16 20 18 15 18 17 15 17 18 18 19 20 20 20 23 25 26 27 27 27 27 23 24 27 29 30 31 31 32 28 25
15 15 10 7 8 9 8 12 14 15 16 15 17 20 21 20 17 18 18 18 19 20 20 22 24 26 27 26 26 27 28 25 22 23 25 27 31 33 34 32 33 30 28
12 12 12 12 12 11 11 11 12 11 13 14 16 24 25 21 18 16 17 19 21 21 22 24 27 26 26 27 26 25 22 24 24 26 26 29 31 32 34 31 34 31 31
18 17 16 17 17 16 14 11 7 9 12 19 22 24 30 32 20 17 19 19 21 22 23 23 25 26 25 24 25 25 25 25 27 28 31 32 33 33 32 33 34 31 30
22 21 19 19 19 18 18 13 9 14 15 18 25 26 26 35 25 20 21 20 22 22 23 26 28 29 30 28 26 27 27 27 29 32 34 36 35 34 34 32 34 34 32
27 25 21 21 21 17 17 19 16 19 19 21 25 29 34 35 30 20 22 21 24 24 23 26 28 30 31 27 26 27 29 31 32 35 37 39 37 34 33 33 34 34 33
24 29 24 25 24 22 27 21 24 21 24 24 26 27 32 36 32 19 21 23 26 26 26 27 30 30 29 27 28 31 32 33 35 38 37 37 36 35 34 36 36 36 34
26 29 30 30 26 29 30 28 26 23 26 25 25 26 31 33 32 25 23 25 26 28 28 30 33 34 33 33 35 34 35 36 35 38 40 37 35 35 34 37 37 36 36
32 31 32 30 31 33 38 25 25 25 30 27 26 28 29 33 31 26 24 28 30 29 31 33 36 37 38 37 36 39 39 38 38 39 37 34 35 35 34 35 38 39 38
34 34 36 35 34 35 31 30 29 30 33 26 28 28 31 34 32 30 28 28 29 32 35 38 41 43 41 41 41 40 39 37 37 35 36 36 36 35 34 31 31 34 37
37 37 38 40 38 37 35 33 34 33 32 32 25 32 33 35 33 34 33 34 37 35 37 38 41 39 35 39 39 38 36 33 33 34 35 36 37 35 34 35 34 34 35
37 39 40 39 40 38 36 38 36 38 35 35 32 36 37 36 37 37 37 40 43 42 36 29 27 30 34 37 36 35 32 32 33 35 36 36 36 38 40 40 39 40 40
38 41 42 41 43 41 39 41 39 40 39 38 37 37 41 37 40 39 43 42 42 39 28 28 31 34 35 34 32 33 34 35 35 35 35 36 37 39 40 41 42 44 44
46 45 44 43 42 40 43 42 40 41 41 43 40 40 40 38 41 43 43 41 42 34 31 30 32 34 35 34 33 34 35 36 34 34 36 38 40 43 43 43 43 43 42
45 44 49 51 50 47 46 45 43 43 47 50 49 45 44 40 40 41 41 43 41 36 33 32 33 35 34 33 33 35 36 36 37 38 39 40 43 44 42 43 43 43 43
51 49 46 46 48 48 47 47 48 49 49 60 62 39 40 38 37 40 42 42 40 35 30 31 34 33 33 34 35 35 35 36 38 39 41 41 43 45 44 43 43 41 40
53 50 43 42 38 39 42 41 42 41 45 31 28 35 39 37 38 41 42 41 41 35 33 32 30 33 35 37 36 36 38 38 38 40 41 41 42 42 41 41 39 38 36
52 46 42 40 40 41 37 35 33 35 36 32 37 40 42 39 41 42 43 41 41 32 32 28 31 33 37 38 37 40 38 38 39 41 42 42 42 41 41 38 37 34 31
48 45 42 41 39 39 39 40 40 42 39 39 41 41 38 44 46 45 47 47 34 29 23 30 34 37 36 37 37 38 37 38 39 39 40 37 37 35 34 32 29 27 26
33 41 41 39 41 43 40 40 39 41 43 44 45 41 45 47 53 51 44 33 25 20 26 31 35 37 38 38 36 37 39 40 41 41 39 35 33 31 30 27 25 23 23
41 35 30 32 34 31 35 38 38 39 41 40 44 46 51 48 42 52 30 24 17 21 27 31 35 38 38 37 36 37 40 41 41 39 36 34 32 31 29 27 26 26 26
28 29 31 35 31 32 35 36 36 36 36 34 42 48 33 40 20 17 22 23 24 27 30 32 35 36 37 36 36 38 40 40 39 36 35 34 33 31 31 30 30 30 30
36 33 36 38 37 36 35 35 37 40 41 43 39 28 17 14 15 20 23 22 26 26 30 32 34 35 37 37 39 41 41 39 36 34 33 32 32 32 33 34 33 32 31
39 40 40 40 39 38 34 32 36 39 41 36 44 13 17 14 15 20 22 23 24 26 29 31 30 32 34 34 39 39 37 35 34 33 32 32 32 33 34 33 33 33 33
Wind_Direction
258 272 282 304 319 346 7 19 5 5 332 327 329 326 324 326 324 314 310 308 310 308 308 312 314 311 307 305 304 301 301 303 303 303 302 299 301 301 302 304 306 299 293
258 262 270 286 310 331 337 323 337 360 22 352 332 322 322 330 327 314 305 302 305 305 309 310 304 308 311 313 314 311 311 307 307 307 306 306 308 305 306 306 306 299 290
255 258 256 277 310 318 318 325 338 357 10 23 10 3 357 332 328 329 309 300 301 305 306 311 307 306 312 312 311 310 306 302 303 303 305 304 301 302 300 299 300 297 285
253 252 237 264 288 310 313 320 333 351 4 354 345 346 341 347 337 333 326 313 307 304 305 311 313 311 313 309 307 307 307 304 300 301 302 302 303 302 301 299 294 298 288
250 250 262 273 279 291 303 322 329 338 350 350 350 348 345 326 326 322 316 307 302 302 307 312 314 319 318 309 308 312 305 303 301 298 301 302 299 299 296 295 294 297 291
267 263 270 272 273 282 288 302 333 330 326 341 343 334 344 343 317 305 301 300 296 299 308 310 313 319 320 317 314 310 306 303 302 298 298 298 298 297 294 294 293 292 292
263 265 266 269 275 272 279 274 297 309 320 324 332 333 333 334 308 282 289 293 294 300 303 309 315 317 315 310 306 304 302 301 299 296 300 302 299 298 295 293 292 293 293
247 253 261 262 263 261 259 263 280 306 311 318 322 325 331 328 325 273 281 291 295 301 305 306 311 316 321 312 310 307 304 299 298 299 301 301 300 297 296 295 292 291 291
247 244 247 253 251 258 258 251 276 294 299 304 316 324 327 329 331 277 278 285 292 293 299 301 304 309 313 309 307 304 303 303 303 303 305 305 302 299 299 296 294 293 292
253 241 242 242 254 263 257 256 272 281 289 291 302 311 320 327 331 311 283 283 292 292 296 297 299 301 309 305 306 305 304 305 305 304 307 305 303 302 299 296 295 291 290
247 238 237 245 251 256 260 268 266 274 278 285 298 304 312 319 328 321 307 297 294 296 295 293 294 298 299 301 304 302 302 305 306 306 304 303 301 299 297 295 295 297 296
242 241 235 241 247 252 258 261 263 274 270 281 293 301 307 310 315 319 314 308 301 298 294 293 294 293 294 298 303 303 302 303 305 302 302 301 299 297 296 293 290 288 290
239 240 244 245 247 253 256 259 262 267 269 273 282 296 300 299 308 309 309 300 301 304 293 291 290 288 286 292 299 300 300 301 301 300 300 300 298 298 298 296 292 287 287
243 243 246 252 252 257 258 260 261 265 267 269 274 283 294 295 301 300 302 296 299 299 294 292 290 292 293 297 301 301 301 301 299 300 301 298 299 302 301 299 297 296 292
248 247 247 252 256 256 258 258 261 262 267 270 270 277 288 290 295 299 301 299 300 293 285 289 293 298 299 299 298 297 297 297 300 300 297 299 301 300 300 297 295 294 292
255 253 251 254 256 256 259 260 262 266 269 267 275 279 284 283 292 296 298 298 299 283 287 290 296 298 299 298 297 296 298 300 299 299 301 302 303 303 304 300 296 294 294
258 259 258 258 257 257 262 263 267 270 270 267 269 272 272 283 291 295 299 297 295 285 285 293 303 303 298 296 294 295 296 296 299 303 303 305 304 303 302 301 300 299 298
254 254 258 259 259 259 262 262 267 271 276 268 261 266 274 282 289 291 291 291 281 276 283 296 301 296 294 294 295 294 296 300 303 305 308 306 304 303 304 303 300 299 296
247 249 250 255 258 257 258 264 265 274 275 278 268 270 275 284 288 287 291 292 278 269 281 289 291 293 296 297 297 299 299 303 308 307 306 305 305 303 303 300 298 296 296
239 243 245 249 256 259 260 263 267 271 273 274 276 274 277 284 285 287 289 289 270 276 291 288 292 298 298 299 299 298 301 306 306 305 306 307 306 305 304 302 299 296 293
227 238 248 251 251 257 261 262 262 266 272 274 276 283 279 283 286 292 292 281 272 295 292 285 293 292 293 293 294 301 304 305 305 303 306 305 303 304 303 300 297 295 294
244 238 245 255 256 252 256 262 265 265 268 275 278 277 282 283 288 284 289 270 284 290 278 289 291 293 294 296 300 300 302 303 303 306 308 303 301 302 299 298 298 298 297
247 252 255 253 260 254 254 261 267 272 275 274 274 280 284 274 275 279 267 298 285 278 285 289 288 290 294 298 300 300 299 304 305 304 299 299 299 297 295 294 294 295 295
248 254 257 264 268 268 265 266 265 273 284 288 285 296 290 271 279 289 291 286 289 286 284 286 289 293 297 299 300 305 306 305 301 299 298 298 296 294 293 292 292 292 292
259 259 260 262 264 268 266 266 269 274 280 289 294 284 287 277 267 268 275 275 274 284 291 297 300 303 308 311 312 308 304 302 299 299 298 296 294 293 291 291 292 293 293
254 255 257 261 265 266 268 271 275 280 286 295 284 273 265 271 269 275 281 285 292 298 299 295 299 310 311 313 310 304 300 298 298 298 297 296 296 295 294 294 293 293 292
Height
5909 5908 5909 5909 5909 5909 5909 5910 5909 5908 5905 5906 5907 5907 5906 5905 5905 5903 5901 5901 5900 5899 5897 5896 5895 5893 5891 5889 5887 5885 5882 5880 5880 5879 5877 5874 5872 5870 5868 5865 5862 5859 5858
5906 5905 5906 5907 5908 5907 5907 5908 5907 5907 5904 5903 5903 5903 5902 5901 5900 5899 5897 5896 5895 5895 5894 5892 5890 5888 5887 5884 5883 5879 5877 5874 5873 5872 5871 5869 5865 5863 5861 5859 5857 5854 5852
5902 5902 5904 5904 5905 5905 5905 5904 5904 5904 5903 5901 5900 5899 5897 5896 5895 5894 5892 5891 5890 5890 5889 5887 5885 5883 5882 5880 5877 5874 5871 5869 5867 5865 5863 5862 5859 5856 5854 5851 5848 5848 5846
5899 5899 5901 5901 5901 5901 5902 5902 5901 5900 5899 5898 5897 5895 5893 5891 5889 5888 5887 5886 5886 5885 5883 5882 5880 5878 5875 5873 5870 5868 5865 5863 5862 5860 5858 5855 5853 5850 5848 5846 5840 5839 5839
5897 5898 5899 5898 5898 5898 5898 5898 5897 5896 5895 5894 5892 5891 5889 5886 5884 5883 5882 5881 5880 5879 5878 5877 5874 5871 5868 5865 5863 5861 5859 5858 5856 5854 5851 5848 5845 5844 5841 5839 5835 5834 5830
5894 5895 5895 5894 5894 5893 5893 5894 5892 5891 5890 5889 5887 5885 5882 5879 5876 5875 5875 5874 5874 5873 5871 5870 5868 5866 5863 5861 5858 5855 5853 5851 5850 5847 5845 5841 5838 5836 5833 5831 5827 5825 5824
5888 5889 5890 5890 5889 5889 5888 5888 5887 5886 5885 5883 5882 5879 5875 5872 5869 5867 5866 5866 5866 5866 5865 5864 5860 5859 5856 5854 5852 5849 5846 5844 5841 5838 5836 5833 5829 5825 5824 5823 5818 5816 5814
5880 5882 5884 5884 5883 5883 5882 5883 5882 5881 5879 5879 5877 5874 5870 5866 5861 5860 5860 5860 5859 5859 5859 5858 5855 5851 5848 5845 5844 5841 5839 5836 5833 5829 5827 5824 5821 5818 5815 5811 5808 5806 5804
5871 5874 5876 5876 5875 5875 5874 5872 5875 5875 5874 5872 5870 5868 5865 5861 5856 5853 5854 5854 5852 5852 5851 5849 5848 5844 5842 5840 5837 5834 5831 5827 5824 5819 5817 5813 5811 5808 5805 5801 5797 5794 5794
5862 5864 5865 5867 5869 5867 5865 5865 5867 5868 5867 5865 5863 5862 5859 5855 5851 5847 5846 5847 5845 5844 5842 5841 5839 5836 5834 5831 5829 5825 5822 5819 5816 5812 5808 5803 5801 5799 5795 5789 5788 5786 5783
5852 5853 5855 5858 5859 5858 5855 5850 5857 5858 5858 5857 5855 5855 5852 5848 5846 5842 5840 5839 5837 5835 5833 5832 5830 5827 5825 5821 5818 5816 5812 5809 5806 5802 5798 5794 5791 5789 5786 5782 5777 5774 5773
5843 5843 5844 5846 5847 5848 5848 5849 5850 5850 5849 5847 5848 5846 5845 5840 5839 5836 5833 5831 5829 5827 5825 5821 5819 5816 5814 5811 5807 5805 5802 5798 5795 5792 5789 5785 5782 5780 5776 5773 5770 5766 5764
5829 5832 5833 5834 5836 5838 5840 5841 5840 5839 5840 5839 5839 5837 5837 5833 5831 5828 5825 5822 5820 5818 5815 5812 5809 5805 5803 5801 5798 5796 5792 5788 5785 5781 5778 5774 5771 5768 5765 5762 5759 5756 5753
5819 5822 5824 5826 5828 5829 5829 5830 5831 5831 5831 5831 5829 5829 5828 5826 5823 5820 5817 5813 5811 5806 5803 5801 5799 5797 5794 5791 5787 5784 5782 5780 5775 5771 5767 5763 5760 5756 5753 5750 5748 5745 5742
5807 5812 5814 5816 5818 5820 5820 5818 5821 5821 5821 5820 5819 5819 5818 5816 5813 5811 5807 5803 5800 5796 5795 5792 5790 5787 5783 5780 5777 5773 5771 5768 5765 5762 5758 5755 5751 5747 5743 5739 5735 5731 5728
5798 5800 5801 5803 5804 5807 5807 5808 5809 5809 5810 5808 5807 5808 5808 5805 5803 5801 5798 5794 5790 5786 5785 5782 5780 5777 5774 5771 5768 5765 5761 5758 5754 5752 5748 5745 5740 5734 5729 5724 5721 5718 5714
5786 5788 5789 5790 5791 5794 5796 5796 5800 5801 5799 5798 5797 5797 5797 5796 5793 5790 5789 5784 5781 5778 5776 5775 5772 5769 5766 5763 5760 5756 5752 5748 5744 5740 5737 5732 5727 5722 5717 5712 5707 5702 5698
5774 5775 5777 5778 5779 5781 5784 5785 5787 5788 5787 5783 5780 5785 5785 5784 5783 5781 5778 5775 5771 5769 5767 5763 5762 5758 5756 5753 5750 5746 5742 5738 5734 5729 5724 5720 5714 5709 5704 5698 5694 5690 5687
5760 5763 5764 5766 5768 5769 5772 5773 5774 5774 5774 5771 5772 5775 5773 5772 5771 5767 5765 5762 5760 5757 5756 5754 5751 5747 5745 5742 5738 5734 5732 5727 5721 5717 5713 5708 5702 5697 5692 5687 5683 5679 5675
5745 5749 5753 5754 5757 5758 5762 5763 5764 5763 5760 5760 5761 5761 5760 5759 5757 5754 5752 5748 5746 5745 5744 5743 5740 5737 5734 5731 5728 5725 5720 5716 5711 5706 5701 5695 5689 5683 5679 5675 5671 5668 5665
5731 5736 5740 5742 5745 5748 5749 5751 5754 5753 5751 5751 5751 5749 5744 5745 5743 5741 5740 5738 5737 5735 5734 5732 5730 5729 5725 5723 5719 5714 5709 5704 5699 5694 5689 5683 5678 5673 5668 5665 5662 5659 5655
5718 5724 5728 5731 5733 5737 5738 5739 5740 5741 5742 5741 5738 5735 5733 5731 5731 5728 5725 5726 5725 5726 5724 5723 5722 5719 5716 5712 5708 5703 5698 5693 5686 5681 5678 5673 5668 5665 5661 5658 5654 5651 5648
5709 5712 5717 5720 5720 5723 5727 5728 5728 5728 5729 5729 5726 5717 5720 5719 5715 5717 5717 5715 5715 5715 5714 5713 5712 5710 5706 5701 5696 5692 5687 5681 5676 5672 5668 5663 5659 5655 5652 5649 5646 5644 5641
5695 5702 5706 5709 5712 5717 5718 5718 5718 5718 5717 5718 5718 5713 5706 5708 5708 5709 5708 5708 5708 5707 5706 5705 5703 5700 5695 5691 5686 5680 5674 5670 5666 5661 5656 5653 5649 5646 5643 5640 5638 5635 5632
5690 5695 5696 5699 5703 5706 5708 5709 5709 5711 5711 5709 5707 5705 5702 5701 5701 5701 5701 5702 5701 5699 5697 5694 5691 5685 5679 5676 5672 5667 5663 5660 5656 5651 5647 5644 5640 5637 5634 5631 5627 5624 5621
5680 5683 5685 5688 5692 5696 5698 5700 5700 5701 5700 5699 5696 5695 5696 5694 5693 5694 5694 5694 5692 5689 5687 5684 5681 5675 5671 5668 5664 5659 5654 5649 5644 5641 5637 5634 5631 5627 5624 5621 5617 5614 5610